Voltar ao catálogo

STARLINK-36725

AtivoComunicaçõesVLEO
NORAD 68285·PAYLOAD·🇺🇸 United States

Lançado Mar 19, 2026 de Vandenberg Space Force Base

Loading…

Próximas Passagens (próximas 24 horas)

TLE

AtualizadoSource: CelesTrak SupGP

Época: Sep 14, 2026, 22:41 UTC

1 68285C 26055Z   26257.94562500 -.00048635  00000+0 -14368-2 0  2578
2 68285  53.1562 157.7009 0001298  86.7140 213.9686 15.34418220    14

Acompanhe STARLINK-36725 em tempo real com AllMySat

Download on the App Store